GAP652 RPLL-RPVM

Flight info

Callsign GAP652
Flight time N/A
Altitude 35000
Route IPATA2R IPATA W25 BATAY BATAY3P
Aircraft A320/M-SDE3FGHIRWY/LB1

Departure

Time 2026-05-05 11:10
Airport Ninoy Aquino International Airport (RPLL)

Arrival

Time N/A
Airport Mactan Cebu International Airport (RPVM)
Time Latitude Longitude Altitude Speed Heading
2026-05-05 10:53 14.50841 121.01307 64 ft 0 kts 330°
2026-05-05 11:02 14.50827 121.01315 66 ft 4 kts 324°
2026-05-05 11:02 14.50807 121.01333 61 ft 4 kts 309°
2026-05-05 11:02 14.50792 121.01357 66 ft 4 kts 289°
2026-05-05 11:02 14.50789 121.01382 65 ft 4 kts 251°
2026-05-05 11:03 14.50791 121.01389 62 ft 2 kts 240°
2026-05-05 11:05 14.50778 121.01366 61 ft 9 kts 240°
2026-05-05 11:05 14.50730 121.01314 67 ft 10 kts 188°
2026-05-05 11:05 14.50672 121.01314 64 ft 8 kts 211°
2026-05-05 11:05 14.50644 121.01276 64 ft 6 kts 239°
2026-05-05 11:06 14.50607 121.01212 64 ft 16 kts 239°
2026-05-05 11:06 14.50535 121.01078 64 ft 26 kts 240°
2026-05-05 11:06 14.50441 121.00909 65 ft 28 kts 239°
2026-05-05 11:06 14.50349 121.00739 68 ft 29 kts 240°
2026-05-05 11:07 14.50254 121.00575 68 ft 30 kts 239°
2026-05-05 11:07 14.50146 121.00382 63 ft 31 kts 239°
2026-05-05 11:07 14.50039 121.00188 68 ft 27 kts 240°
2026-05-05 11:08 14.49941 121.00016 66 ft 28 kts 239°
2026-05-05 11:08 14.49867 120.99970 65 ft 6 kts 136°
2026-05-05 11:08 14.49826 120.99995 66 ft 8 kts 150°
2026-05-05 11:08 14.49814 121.00059 67 ft 11 kts 63°
2026-05-05 11:09 14.49873 121.00168 66 ft 39 kts 59°
2026-05-05 11:09 14.50132 121.00630 59 ft 106 kts 60°
2026-05-05 11:09 14.50589 121.01455 63 ft 156 kts 61°
2026-05-05 11:09 14.51156 121.02479 569 ft 164 kts 60°
2026-05-05 11:10 14.51744 121.03508 1228 ft 167 kts 60°
2026-05-05 11:10 14.52338 121.04540 1862 ft 173 kts 60°
2026-05-05 11:10 14.52980 121.05673 2175 ft 193 kts 62°
2026-05-05 11:10 14.53681 121.06957 2418 ft 218 kts 62°
2026-05-05 11:11 14.54447 121.08368 2759 ft 241 kts 62°
2026-05-05 11:11 14.55306 121.09940 3296 ft 258 kts 62°
2026-05-05 11:11 14.56199 121.11563 4097 ft 262 kts 61°
2026-05-05 11:11 14.57005 121.13255 4961 ft 264 kts 73°
2026-05-05 11:12 14.57216 121.15140 5771 ft 268 kts 96°
2026-05-05 11:12 14.56635 121.16960 6608 ft 271 kts 121°
2026-05-05 11:12 14.55336 121.18373 7391 ft 276 kts 141°
2026-05-05 11:12 14.53786 121.19558 8198 ft 279 kts 142°
2026-05-05 11:13 14.52285 121.20838 9005 ft 281 kts 137°
2026-05-05 11:13 14.50812 121.22186 9806 ft 284 kts 137°
2026-05-05 11:13 14.49316 121.23557 10341 ft 296 kts 137°
2026-05-05 11:13 14.47719 121.25028 10537 ft 319 kts 135°
2026-05-05 11:14 14.46032 121.26585 10983 ft 329 kts 136°
2026-05-05 11:14 14.44310 121.28178 11540 ft 336 kts 136°
2026-05-05 11:14 14.42553 121.29806 12109 ft 341 kts 137°
2026-05-05 11:14 14.40767 121.31459 12702 ft 346 kts 137°
2026-05-05 11:15 14.38960 121.33129 13252 ft 352 kts 137°
2026-05-05 11:15 14.37127 121.34821 13834 ft 356 kts 137°
2026-05-05 11:15 14.35270 121.36530 14382 ft 358 kts 137°
2026-05-05 11:15 14.33406 121.38248 14940 ft 361 kts 137°
2026-05-05 11:16 14.31524 121.39987 15435 ft 365 kts 137°
2026-05-05 11:16 14.29622 121.41746 15926 ft 370 kts 137°
2026-05-05 11:16 14.27698 121.43525 16449 ft 373 kts 137°
2026-05-05 11:16 14.25759 121.45315 16983 ft 376 kts 138°
2026-05-05 11:17 14.23803 121.47115 17497 ft 378 kts 138°
2026-05-05 11:17 14.21833 121.48929 18020 ft 381 kts 138°
2026-05-05 11:17 14.19846 121.50766 18461 ft 385 kts 138°
2026-05-05 11:17 14.17842 121.52618 18874 ft 388 kts 138°
2026-05-05 11:18 14.15822 121.54482 19298 ft 391 kts 138°
2026-05-05 11:18 14.13816 121.56330 19741 ft 393 kts 138°
2026-05-05 11:18 14.11775 121.58205 20203 ft 394 kts 138°
2026-05-05 11:18 14.09717 121.60093 20643 ft 396 kts 139°
2026-05-05 11:19 14.07647 121.61989 21047 ft 399 kts 139°
2026-05-05 11:19 14.05567 121.63897 21455 ft 402 kts 139°
2026-05-05 11:19 14.03480 121.65819 21863 ft 404 kts 139°
2026-05-05 11:19 14.01379 121.67754 22301 ft 406 kts 139°
2026-05-05 11:20 13.99271 121.69694 22746 ft 407 kts 139°
2026-05-05 11:20 13.97154 121.71643 23159 ft 409 kts 139°
2026-05-05 11:20 13.95021 121.73606 23521 ft 412 kts 139°
2026-05-05 11:20 13.92875 121.75579 23796 ft 416 kts 139°
2026-05-05 11:21 13.90706 121.77566 24114 ft 418 kts 139°
2026-05-05 11:21 13.88529 121.79555 24438 ft 420 kts 139°
2026-05-05 11:21 13.86323 121.81527 24749 ft 422 kts 143°
2026-05-05 11:21 13.83956 121.83333 25030 ft 424 kts 144°
2026-05-05 11:22 13.81574 121.85133 25338 ft 427 kts 144°
2026-05-05 11:22 13.79173 121.86941 25644 ft 429 kts 144°
2026-05-05 11:22 13.76783 121.88740 25925 ft 431 kts 144°
2026-05-05 11:22 13.74353 121.90570 26247 ft 433 kts 144°
2026-05-05 11:23 13.71917 121.92404 26541 ft 435 kts 144°
2026-05-05 11:23 13.69470 121.94248 26842 ft 437 kts 144°
2026-05-05 11:23 13.67011 121.96102 27127 ft 439 kts 144°
2026-05-05 11:23 13.64543 121.97961 27402 ft 441 kts 144°
2026-05-05 11:24 13.62061 121.99834 27688 ft 443 kts 144°
2026-05-05 11:24 13.59566 122.01714 27961 ft 446 kts 144°
2026-05-05 11:24 13.57061 122.03595 28262 ft 447 kts 144°
2026-05-05 11:24 13.54540 122.05488 28526 ft 450 kts 144°
2026-05-05 11:25 13.52017 122.07387 28804 ft 451 kts 144°
2026-05-05 11:25 13.49480 122.09303 29059 ft 454 kts 144°
2026-05-05 11:25 13.46929 122.11228 29293 ft 456 kts 144°
2026-05-05 11:25 13.44362 122.13162 29529 ft 459 kts 144°
2026-05-05 11:26 13.41777 122.15105 29775 ft 461 kts 144°
2026-05-05 11:26 13.39218 122.17029 30014 ft 462 kts 144°
2026-05-05 11:26 13.36584 122.19007 30226 ft 464 kts 144°
2026-05-05 11:26 13.34006 122.20943 30441 ft 466 kts 144°
2026-05-05 11:27 13.31389 122.22907 30651 ft 467 kts 144°
2026-05-05 11:27 13.28728 122.24903 30855 ft 469 kts 144°
2026-05-05 11:27 13.26122 122.26860 31076 ft 470 kts 144°
2026-05-05 11:27 13.23492 122.28837 31401 ft 468 kts 144°
2026-05-05 11:28 13.20864 122.30808 31705 ft 467 kts 144°
2026-05-05 11:28 13.18237 122.32778 32017 ft 467 kts 144°
2026-05-05 11:28 13.15615 122.34744 32327 ft 466 kts 144°
2026-05-05 11:28 13.13002 122.36707 32639 ft 465 kts 144°
2026-05-05 11:29 13.10395 122.38665 32951 ft 464 kts 144°
2026-05-05 11:29 13.07788 122.40616 33249 ft 463 kts 145°
2026-05-05 11:29 13.05185 122.42561 33570 ft 463 kts 145°
2026-05-05 11:29 13.02584 122.44502 33882 ft 462 kts 145°
2026-05-05 11:30 12.99992 122.46440 34159 ft 461 kts 145°
2026-05-05 11:30 12.97405 122.48379 34428 ft 460 kts 145°
2026-05-05 11:30 12.94825 122.50314 34695 ft 460 kts 145°
2026-05-05 11:30 12.92238 122.52252 34843 ft 460 kts 145°
2026-05-05 11:31 12.89663 122.54179 34882 ft 457 kts 145°
2026-05-05 11:31 12.84544 122.57999 34882 ft 455 kts 145°
2026-05-05 11:32 12.79432 122.61822 34882 ft 454 kts 145°
2026-05-05 11:32 12.74356 122.65618 34881 ft 454 kts 145°
2026-05-05 11:33 12.69246 122.69425 34881 ft 455 kts 145°
2026-05-05 11:33 12.64130 122.73236 34878 ft 455 kts 145°
2026-05-05 11:34 12.59013 122.77047 34879 ft 455 kts 145°
2026-05-05 11:34 12.53895 122.80872 34880 ft 455 kts 145°
2026-05-05 11:35 12.48776 122.84695 34880 ft 455 kts 145°
2026-05-05 11:35 12.43683 122.88479 34881 ft 455 kts 145°
2026-05-05 11:35 12.41954 122.89763 36396 ft 455 kts 145°